FW6932 Weather Reports


Display with metric or nautical units.
time (UTC)temp
F
wind
direction
speed
MPH
gust
MPH
rain 1hr
in
rain 24hr
in
rain mn
in
humidity
%
barometer
mb
20240228054534 48 332 1.0 1.0 0.00 0.00 0.00 85 1020.1
20240228053542 48 332 0.0 0.0 0.00 0.00 0.00 84 1020.0
20240228052504 49 257 2.0 2.0 0.00 0.00 0.00 83 1020.0
20240228051435 49 217 3.0 3.0 0.00 0.00 0.00 82 1020.1
20240228050437 49 127 2.0 2.0 0.00 0.00 0.00 82 1019.9
20240228045522 49 332 1.0 1.0 0.00 0.00 0.00 82 1019.6
20240228044616 49 128 2.0 2.0 0.00 0.00 0.00 83 1019.4
20240228043515 49 169 3.0 3.0 0.00 0.00 0.00 83 1019.7
20240228042435 48 122 2.0 2.0 0.00 0.00 0.00 84 1019.9
20240228041503 48 122 1.0 1.0 0.00 0.00 0.00 84 1019.5
20240228040454 48 122 1.0 1.0 0.00 0.00 0.00 84 1019.6
20240228035535 48 122 1.0 1.0 0.00 0.00 0.00 83 1019.7
20240228034318 49 122 0.0 0.0 0.00 0.00 0.00 82 1019.7
20240228033224 49 122 1.0 1.0 0.00 0.00 0.00 83 1019.5
20240228032351 49 122 1.0 1.0 0.00 0.00 0.00 83 1019.3
20240228031222 49 122 0.0 0.0 0.00 0.00 0.00 82 1019.2
20240228030235 49 344 1.0 1.0 0.00 0.00 0.00 82 1019.4
20240228025052 50 263 2.0 2.0 0.00 0.00 0.00 82 1019.3
20240228024134 49 122 0.0 0.0 0.00 0.00 0.00 83 1019.1
20240228023035 49 216 2.0 2.0 0.00 0.00 0.00 83 1019.2
20240228021835 49 333 0.0 1.0 0.00 0.00 0.00 83 1019.1
20240228020859 49 333 1.0 1.0 0.00 0.00 0.00 83 1018.9
20240228015942 49 333 0.0 1.0 0.00 0.00 0.00 83 1019.1
20240228015019 49 333 0.0 0.0 0.00 0.00 0.00 84 1019.1
20240228013855 48 333 0.0 1.0 0.00 0.00 0.00 84 1019.3
20240228012631 49 261 2.0 2.0 0.00 0.00 0.00 85 1019.3
20240228011435 48 331 2.0 2.0 0.00 0.00 0.00 85 1018.9
20240228010515 48 286 2.0 2.0 0.00 0.00 0.00 86 1019.2
20240228005222 48 124 2.0 2.0 0.00 0.00 0.00 85 1019.0
20240228004203 48 226 1.0 1.0 0.00 0.00 0.00 85 1019.0
20240228003206 49 236 1.0 1.0 0.00 0.00 0.00 85 1019.1
20240228002206 49 238 2.0 2.0 0.00 0.00 0.00 85 1019.1
20240228001029 49 216 1.0 1.0 0.00 0.00 0.00 85 1019.0
20240228000134 49 128 0.0 1.0 0.00 0.00 0.00 86 1018.9
20240227235034 49 120 0.0 0.0 0.00 0.00 0.00 86 1019.2
20240227233813 49 120 1.0 1.0 0.00 0.00 0.00 85 1018.9
20240227232842 49 120 2.0 2.0 0.00 0.00 0.00 84 1019.2
20240227231834 50 122 2.0 2.0 0.00 0.00 0.00 85 1019.2
20240227230838 49 122 1.0 2.0 0.00 0.00 0.00 85 1019.2
20240227225849 49 122 1.0 1.0 0.00 0.00 0.00 85 1019.2
20240227224902 49 122 2.0 2.0 0.00 0.00 0.00 85 1019.0
20240227223851 49 122 0.0 0.0 0.00 0.00 0.00 85 1018.9
20240227222915 50 122 0.0 0.0 0.00 0.00 0.00 84 1019.1
20240227221814 50 122 0.0 0.0 0.00 0.00 0.00 83 1019.0
20240227220634 50 122 1.0 1.0 0.00 0.00 0.00 83 1018.8
20240227215531 50 230 2.0 2.0 0.00 0.00 0.00 83 1018.9
20240227214515 51 120 2.0 2.0 0.00 0.00 0.00 82 1018.8
20240227213414 51 120 1.0 1.0 0.00 0.00 0.00 82 1019.0
20240227212234 51 120 2.0 2.0 0.00 0.00 0.00 82 1019.2
20240227211031 51 120 1.0 1.0 0.00 0.00 0.00 82 1019.3
20240227210115 51 120 1.0 1.0 0.00 0.00 0.00 81 1018.9
20240227205014 51 120 1.0 1.0 0.00 0.00 0.00 80 1018.7
20240227203834 52 120 0.0 0.0 0.00 0.00 0.00 78 1018.6
20240227201903 53 120 0.0 0.0 0.00 0.00 0.00 77 1018.6
20240227200822 54 120 2.0 2.0 0.00 0.00 0.00 75 1018.6
20240227195850 54 120 1.0 1.0 0.00 0.00 0.00 75 1018.6
20240227194914 54 164 3.0 3.0 0.00 0.00 0.00 75 1018.7
20240227193935 54 212 3.0 3.0 0.00 0.00 0.00 75 1018.5
20240227192859 54 135 3.0 3.0 0.00 0.00 0.00 74 1018.3
20240227191851 54 156 3.0 3.0 0.00 0.00 0.00 76 1018.2
20240227190936 53 147 5.0 6.0 0.00 0.00 0.00 77 1018.3
20240227185815 52 144 3.0 3.0 0.00 0.00 0.00 81 1018.1
20240227184739 52 126 1.0 1.0 0.00 0.00 0.00 82 1018.0
20240227183802 52 122 1.0 1.0 0.00 0.00 0.00 82 1018.0
20240227182927 52 121 0.0 0.0 0.00 0.00 0.00 82 1017.9
20240227181748 52 122 1.0 1.0 0.00 0.00 0.00 82 1017.8
20240227180614 52 121 0.0 0.0 0.00 0.00 0.00 82 1017.7
20240227175638 52 121 0.0 0.0 0.00 0.00 0.00 82 1017.7
20240227174646 52 121 0.0 1.0 0.00 0.00 0.00 81 1017.8
20240227173654 53 121 1.0 1.0 0.00 0.00 0.00 79 1017.7
20240227172615 53 121 0.0 0.0 0.00 0.00 0.00 79 1017.8
20240227171414 54 124 1.0 2.0 0.00 0.00 0.00 78 1017.8
20240227170231 55 124 1.0 1.0 0.00 0.00 0.00 75 1017.6
20240227165255 55 124 1.0 1.0 0.00 0.00 0.00 74 1017.5
20240227164314 56 124 0.0 1.0 0.00 0.00 0.00 74 1017.5
20240227163014 56 124 2.0 2.0 0.00 0.00 0.00 72 1017.4
20240227161830 57 127 2.0 2.0 0.00 0.00 0.00 70 1017.3
20240227160835 57 119 2.0 2.0 0.00 0.00 0.00 70 1017.0
20240227155830 57 1 2.0 2.0 0.00 0.00 0.00 69 1017.1
20240227154903 58 135 3.0 3.0 0.00 0.00 0.00 68 1017.0
20240227153911 58 130 3.0 3.0 0.00 0.00 0.00 68 1016.8
20240227152854 58 121 2.0 2.0 0.00 0.00 0.00 68 1016.8
20240227151903 58 143 3.0 3.0 0.00 0.00 0.00 68 1016.7
20240227150846 58 149 3.0 5.0 0.00 0.00 0.00 67 1016.8
20240227145850 58 131 4.0 5.0 0.00 0.00 0.00 68 1016.4
20240227144838 58 140 5.0 6.0 0.00 0.00 0.00 68 1016.5
20240227143902 59 127 4.0 5.0 0.00 0.00 0.00 68 1016.3
20240227142922 59 129 4.0 5.0 0.00 0.00 0.00 67 1016.3
20240227141815 59 151 3.0 5.0 0.00 0.00 0.00 67 1016.4
20240227140838 59 131 4.0 6.0 0.00 0.00 0.00 68 1016.4
20240227135836 59 133 5.0 5.0 0.00 0.00 0.00 68 1016.6
20240227134855 58 144 6.0 8.0 0.00 0.00 0.00 67 1016.3
20240227133855 59 131 4.0 5.0 0.00 0.00 0.00 67 1016.5
20240227132939 59 191 5.0 7.0 0.00 0.00 0.00 67 1016.2
20240227131927 59 146 7.0 8.0 0.00 0.00 0.00 67 1016.3
20240227130855 59 137 6.0 7.0 0.00 0.00 0.00 67 1016.1
20240227125817 59 146 6.0 8.0 0.00 0.00 0.00 67 1016.2
20240227124839 59 141 6.0 8.0 0.00 0.00 0.00 67 1016.2
20240227123903 59 127 9.0 10.0 0.00 0.00 0.00 67 1016.1
20240227122823 59 145 4.0 5.0 0.00 0.00 0.00 67 1016.4
20240227121911 60 137 7.0 8.0 0.00 0.00 0.00 66 1016.4
20240227120915 60 134 8.0 10.0 0.00 0.00 0.00 66 1016.3
20240227115835 59 113 7.0 8.0 0.00 0.00 0.00 67 1016.3
20240227114631 59 126 11.0 14.0 0.00 0.00 0.00 67 1016.4
20240227113655 59 134 4.0 6.0 0.00 0.00 0.00 68 1016.3
20240227112714 59 172 7.0 8.0 0.00 0.00 0.00 68 1016.5
20240227111638 58 164 7.0 8.0 0.00 0.00 0.00 68 1016.4
20240227110648 58 137 6.0 8.0 0.00 0.00 0.00 68 1016.4
20240227105715 57 134 5.0 7.0 0.00 0.00 0.00 70 1016.3
20240227104615 57 155 6.0 8.0 0.00 0.00 0.00 69 1016.6
20240227103623 57 181 5.0 7.0 0.00 0.00 0.00 69 1016.5
20240227102657 57 121 3.0 3.0 0.00 0.00 0.00 70 1016.7
20240227101736 57 148 5.0 7.0 0.00 0.00 0.00 70 1016.3
20240227100614 57 139 5.0 6.0 0.00 0.00 0.00 69 1016.3
20240227095451 56 139 3.0 5.0 0.00 0.00 0.00 70 1016.2
20240227094454 57 154 8.0 10.0 0.00 0.00 0.00 70 1016.3
20240227093434 56 193 5.0 6.0 0.00 0.00 0.00 70 1016.3
20240227092231 56 144 9.0 9.0 0.00 0.00 0.00 71 1016.2
20240227091314 56 148 10.0 11.0 0.00 0.00 0.00 71 1016.4
20240227090338 55 137 4.0 7.0 0.00 0.00 0.00 72 1016.1
20240227085222 54 132 3.0 3.0 0.00 0.00 0.00 79 1016.3
20240227084234 54 150 4.0 6.0 0.00 0.00 0.00 77 1016.4
20240227083259 52 113 5.0 6.0 0.00 0.00 0.00 80 1016.0
20240227082343 53 106 3.0 3.0 0.00 0.00 0.00 79 1016.0
20240227081322 53 117 3.0 5.0 0.00 0.00 0.00 78 1015.9
20240227080251 52 124 5.0 6.0 0.00 0.00 0.00 81 1016.2
20240227075244 53 120 5.0 6.0 0.00 0.00 0.00 78 1015.9
20240227074312 52 160 6.0 7.0 0.00 0.00 0.00 78 1016.0
20240227073255 52 154 6.0 8.0 0.00 0.00 0.00 79 1016.0
20240227072235 51 151 2.0 2.0 0.00 0.00 0.00 83 1015.7
20240227071200 48 116 0.0 0.0 0.00 0.00 0.00 88 1015.6
20240227070143 49 169 2.0 2.0 0.00 0.00 0.00 90 1015.6
20240227065227 47 117 3.0 3.0 0.00 0.00 0.00 93 1015.4
20240227064307 46 120 1.0 2.0 0.00 0.00 0.00 93 1015.2
20240227063200 46 107 1.0 2.0 0.00 0.00 0.00 93 1015.1
20240227062319 45 100 3.0 3.0 0.00 0.00 0.00 94 1015.2
20240227061119 45 124 0.0 0.0 0.00 0.00 0.00 93 1015.0
20240227060127 44 124 1.0 1.0 0.00 0.00 0.00 93 1014.9